When you browse on this site, cookies collect data to enhance your experience and personalize the content and advertising you see.
Visit our Privacy Policy to learn more. By continuing to use the site, you agree to this use of cookies and data.
  • Em Portugal
  • Lista de países
  • Para 7 dias
  • Temperatura da água
  • Mapas de satélite
  • Mapa do tempo
  • Widgets de tempo
  • user-avatar
    Iniciar Sessão

    Previsão horária em Polotsk

    Hoje, 17 Fevereiro, Domingo

    Tempo Temperatura Precipitação Vento Pressão Humidade
    00:00 -1°C° 0 mm 6 m/s 745 mmHg 77%
    01:00 -1°C° 0 mm 6 m/s 745 mmHg 78%
    02:00 -1°C° 0 mm 6 m/s 744 mmHg 80%
    03:00 -1°C° 0 mm 6 m/s 744 mmHg 82%
    04:00 -1°C° 0 mm 6 m/s 744 mmHg 84%
    05:00 -2°C° 0 mm 6 m/s 744 mmHg 87%
    06:00 -1°C° 0 mm 6 m/s 744 mmHg 89%
    07:00 0°C° 0 mm 5 m/s 744 mmHg 90%
    08:00 0°C° 0 mm 5 m/s 744 mmHg 92%
    09:00 0°C° 0 mm 5 m/s 745 mmHg 91%
    10:00 +1°C° 0 mm 5 m/s 745 mmHg 90%
    11:00 +1°C° 0 mm 5 m/s 745 mmHg 89%
    12:00 +1°C° 0 mm 5 m/s 746 mmHg 83%
    13:00 +1°C° 0 mm 5 m/s 746 mmHg 77%
    14:00 +2°C° 0 mm 6 m/s 746 mmHg 72%
    15:00 +1°C° 0 mm 5 m/s 747 mmHg 73%
    16:00 0°C° 0 mm 5 m/s 747 mmHg 74%
    17:00 -1°C° 0 mm 5 m/s 747 mmHg 75%
    18:00 -1°C° 0 mm 4 m/s 748 mmHg 78%
    19:00 -2°C° 0 mm 4 m/s 748 mmHg 80%
    20:00 -3°C° 0 mm 4 m/s 749 mmHg 83%
    21:00 -3°C° 0 mm 4 m/s 749 mmHg 84%
    22:00 -2°C° 0 mm 3 m/s 749 mmHg 85%
    23:00 -4°C° 0 mm 3 m/s 750 mmHg 87%

    Amanhã, 18 Fevereiro, Segunda-feira

    Tempo Temperatura Precipitação Vento Pressão Humidade
    00:00 -4°C° 0 mm 3 m/s 750 mmHg 87%
    01:00 -4°C° 0 mm 3 m/s 751 mmHg 88%
    02:00 -3°C° 0 mm 2 m/s 751 mmHg 88%
    03:00 -3°C° 0 mm 2 m/s 752 mmHg 88%
    04:00 -4°C° 0 mm 2 m/s 752 mmHg 88%
    05:00 -4°C° 0 mm 2 m/s 752 mmHg 88%
    06:00 -4°C° 0 mm 2 m/s 752 mmHg 87%
    07:00 -4°C° 0 mm 2 m/s 753 mmHg 86%
    08:00 -4°C° 0 mm 2 m/s 753 mmHg 85%
    09:00 -3°C° 0 mm 2 m/s 753 mmHg 78%
    10:00 0°C° 0 mm 1 m/s 754 mmHg 71%
    11:00 0°C° 0 mm 1 m/s 754 mmHg 64%
    12:00 +1°C° 0 mm 1 m/s 754 mmHg 60%
    13:00 +1°C° 0 mm 1 m/s 754 mmHg 57%
    14:00 +2°C° 0 mm 1 m/s 754 mmHg 53%
    15:00 +1°C° 0 mm 1 m/s 754 mmHg 57%
    16:00 +1°C° 0 mm 1 m/s 754 mmHg 61%
    17:00 0°C° 0 mm 1 m/s 753 mmHg 66%
    18:00 0°C° 0 mm 1 m/s 753 mmHg 67%
    19:00 -3°C° 0 mm 2 m/s 753 mmHg 69%
    20:00 -3°C° 0 mm 2 m/s 753 mmHg 71%
    21:00 -3°C° 0 mm 2 m/s 753 mmHg 71%
    22:00 -4°C° 0 mm 3 m/s 753 mmHg 72%
    23:00 -4°C° 0 mm 3 m/s 753 mmHg 72%

    Depois de amanhã, 19 Fevereiro, Terça-feira

    Tempo Temperatura Precipitação Vento Pressão Humidade
    00:00 -4°C° 0 mm 3 m/s 753 mmHg 71%
    01:00 -4°C° 0 mm 3 m/s 752 mmHg 71%
    02:00 -4°C° 0 mm 4 m/s 752 mmHg 70%
    03:00 -3°C° 0 mm 4 m/s 752 mmHg 71%
    04:00 -3°C° 0 mm 4 m/s 751 mmHg 72%
    05:00 -3°C° 0 mm 4 m/s 751 mmHg 73%
    06:00 -3°C° 0 mm 4 m/s 750 mmHg 74%
    07:00 -4°C° 0 mm 5 m/s 750 mmHg 76%
    08:00 -4°C° 0 mm 5 m/s 749 mmHg 77%
    09:00 -2°C° 0 mm 5 m/s 749 mmHg 75%
    10:00 0°C° 0 mm 5 m/s 749 mmHg 72%
    11:00 +1°C° 0 mm 6 m/s 748 mmHg 70%
    12:00 +1°C° 0 mm 6 m/s 748 mmHg 70%
    13:00 +2°C° 0 mm 6 m/s 747 mmHg 70%
    14:00 +2°C° 0 mm 6 m/s 747 mmHg 70%
    15:00 +1°C° 0 mm 6 m/s 746 mmHg 73%
    16:00 +1°C° 0 mm 5 m/s 745 mmHg 77%
    17:00 0°C° 0 mm 5 m/s 745 mmHg 80%
    18:00 0°C° 0 mm 5 m/s 744 mmHg 83%
    19:00 0°C° 0 mm 5 m/s 744 mmHg 85%
    20:00 0°C° 0 mm 5 m/s 743 mmHg 87%
    21:00 0°C° 0 mm 5 m/s 743 mmHg 87%
    22:00 0°C° 0 mm 5 m/s 742 mmHg 88%
    23:00 0°C° 0 mm 5 m/s 742 mmHg 89%

    20 Fevereiro, Quarta-feira

    Tempo Temperatura Precipitação Vento Pressão Humidade
    00:00 0°C° 0 mm 5 m/s 741 mmHg 89%
    01:00 -1°C° 0 mm 5 m/s 741 mmHg 89%
    02:00 -1°C° 0 mm 5 m/s 740 mmHg 89%
    03:00 0°C° 0.4 mm 5 m/s 740 mmHg 90%
    04:00 0°C° 0.4 mm 5 m/s 739 mmHg 90%
    05:00 0°C° 0.4 mm 5 m/s 739 mmHg 91%
    06:00 0°C° 0.1 mm 5 m/s 739 mmHg 91%
    07:00 0°C° 0.1 mm 5 m/s 739 mmHg 91%
    08:00 0°C° 0.1 mm 5 m/s 740 mmHg 91%
    09:00 0°C° 0.1 mm 5 m/s 740 mmHg 90%
    10:00 +1°C° 0.1 mm 5 m/s 740 mmHg 89%
    11:00 +1°C° 0.1 mm 5 m/s 740 mmHg 89%
    12:00 +1°C° 0.1 mm 5 m/s 740 mmHg 86%
    13:00 +2°C° 0.1 mm 6 m/s 739 mmHg 83%
    14:00 +2°C° 0.1 mm 6 m/s 739 mmHg 80%
    15:00 +2°C° 0.2 mm 6 m/s 739 mmHg 81%
    16:00 +1°C° 0.2 mm 6 m/s 739 mmHg 82%
    17:00 +1°C° 0.2 mm 6 m/s 739 mmHg 83%
    18:00 -1°C° 0 mm 6 m/s 740 mmHg 81%
    19:00 -2°C° 0 mm 6 m/s 740 mmHg 78%
    20:00 -3°C° 0 mm 6 m/s 740 mmHg 75%
    21:00 -3°C° 0 mm 6 m/s 741 mmHg 76%
    22:00 -3°C° 0 mm 6 m/s 741 mmHg 77%
    23:00 -3°C° 0 mm 7 m/s 742 mmHg 78%

    21 Fevereiro, Quinta-feira

    Tempo Temperatura Precipitação Vento Pressão Humidade
    00:00 -3°C° 0 mm 7 m/s 742 mmHg 78%
    01:00 -4°C° 0 mm 6 m/s 743 mmHg 78%
    02:00 -4°C° 0 mm 6 m/s 743 mmHg 79%
    03:00 -6°C° 0 mm 7 m/s 744 mmHg 75%
    04:00 -6°C° 0 mm 7 m/s 744 mmHg 71%
    05:00 -7°C° 0 mm 7 m/s 745 mmHg 67%
    06:00 -8°C° 0 mm 7 m/s 745 mmHg 65%
    07:00 -8°C° 0 mm 7 m/s 746 mmHg 63%
    08:00 -9°C° 0 mm 6 m/s 747 mmHg 62%
    09:00 -9°C° 0 mm 6 m/s 747 mmHg 59%
    10:00 -8°C° 0 mm 6 m/s 748 mmHg 57%
    11:00 -8°C° 0 mm 6 m/s 748 mmHg 55%
    12:00 -6°C° 0 mm 6 m/s 749 mmHg 54%
    13:00 -6°C° 0 mm 6 m/s 749 mmHg 54%
    14:00 -6°C° 0 mm 5 m/s 749 mmHg 53%
    15:00 -6°C° 0 mm 5 m/s 750 mmHg 54%
    16:00 -6°C° 0 mm 5 m/s 750 mmHg 56%
    17:00 -5°C° 0 mm 4 m/s 750 mmHg 57%
    18:00 -7°C° 0 mm 4 m/s 751 mmHg 59%
    19:00 -7°C° 0 mm 4 m/s 751 mmHg 60%
    20:00 -8°C° 0 mm 4 m/s 751 mmHg 62%
    21:00 -7°C° 0 mm 3 m/s 752 mmHg 63%
    22:00 -7°C° 0 mm 3 m/s 752 mmHg 64%
    23:00 -8°C° 0 mm 3 m/s 752 mmHg 65%

    22 Fevereiro, Sexta-feira

    Tempo Temperatura Precipitação Vento Pressão Humidade
    00:00 -8°C° 0 mm 3 m/s 753 mmHg 65%
    01:00 -8°C° 0 mm 3 m/s 753 mmHg 66%
    02:00 -8°C° 0 mm 3 m/s 754 mmHg 66%
    03:00 -9°C° 0 mm 4 m/s 754 mmHg 66%
    04:00 -10°C° 0 mm 4 m/s 754 mmHg 67%
    05:00 -10°C° 0 mm 4 m/s 755 mmHg 67%
    06:00 -10°C° 0 mm 4 m/s 755 mmHg 66%
    07:00 -12°C° 0 mm 5 m/s 756 mmHg 66%
    08:00 -12°C° 0 mm 5 m/s 757 mmHg 65%
    09:00 -11°C° 0 mm 5 m/s 757 mmHg 58%
    10:00 -11°C° 0 mm 6 m/s 758 mmHg 51%
    11:00 -10°C° 0 mm 6 m/s 759 mmHg 44%
    12:00 -9°C° 0 mm 6 m/s 759 mmHg 41%
    13:00 -9°C° 0 mm 6 m/s 760 mmHg 38%
    14:00 -8°C° 0 mm 6 m/s 760 mmHg 35%
    15:00 -8°C° 0 mm 6 m/s 761 mmHg 39%
    16:00 -9°C° 0 mm 6 m/s 761 mmHg 43%
    17:00 -8°C° 0 mm 5 m/s 762 mmHg 48%
    18:00 -8°C° 0 mm 5 m/s 763 mmHg 51%
    19:00 -10°C° 0 mm 5 m/s 764 mmHg 54%
    20:00 -9°C° 0 mm 4 m/s 764 mmHg 58%
    21:00 -9°C° 0 mm 4 m/s 765 mmHg 61%
    22:00 -9°C° 0 mm 4 m/s 765 mmHg 63%
    23:00 -9°C° 0 mm 3 m/s 766 mmHg 66%
    Mostrar mais